{"data":{"norad_id":49950,"epoch":"2026-09-20T04:37:23.689056Z","epoch_age_seconds":136184,"freshness":"FRESH","line1":"1 49950U 21120B   26263.19263529  .00023218  00000+0  34445-3 0  9997","line2":"2 49950  41.9930 206.8310 0015521 199.3240 160.7018 15.54573183269616","mean_motion":15.54573183,"eccentricity":0.0015521,"inclination_deg":41.993,"raan_deg":206.831,"arg_perigee_deg":199.324,"mean_anomaly_deg":160.7018,"bstar":0.00034445,"rev_number":26961,"period_min":92.629926705741,"perigee_km":392.86800390107,"apogee_km":413.91923124414,"semimajor_km":6781.5306175726,"source":"CELESTRAK","updated_at":"2026-09-21T09:00:08.141221Z"}}